Location: Sternwarte Stuttgart
(48.7670°N, 9.1830°E)
Time: 06:38:33
(UTC+02:00)

Cosmos 2180 Rocket - Pass Details

Date: 24 January 2019
Orbit: 953 x 1005 km, 82.9° (Epoch: 23 October)

Event Time Altitude Azimuth Distance (km) Brightness Sun altitude
Rises 06:28:38 0° 349° (N) 3,699 7.3 -15.4°
Reaches altitude 10° 06:31:11 10° 348° (NNW) 2,740 6.6 -15.0°
Maximum altitude 06:37:25 74° 265° (W) 1,011 4.4 -14.0°
Drops below altitude 10° 06:43:33 10° 181° (S) 2,688 7.0 -13.0°
Sets 06:46:01 0° 180° (S) 3,625 7.7 -12.6°
